Regional Weather Roundup
Issued by NWS

Home | Current Version | Previous Version | Graphics & Text | Print | Product List | Glossary Off
Versions: 1 2 3 4 5 6 7 8 9 10 11 12 13 14 15 16 17 18 19 20 21 22 23 24 25 26 27 28 29 30 31 32 33 34 35 36 37 38 39 40 41 42 43 44 45 46 47 48 49 50

000
ASUS43 KMKX 112210
RWRWI

WISCONSIN REGIONAL WEATHER ROUNDUP
NATIONAL WEATHER SERVICE MILWAUKEE/SULLIVAN WI
400 PM CST MON DEC 11 2017

NOTE: "FAIR" INDICATES FEW OR NO CLOUDS BELOW 12,000 FEET WITH NO
SIGNIFICANT WEATHER AND/OR OBSTRUCTIONS TO VISIBILITY.

WIZ001-002-006>008-014>016-023>028-112300-
NORTHWEST WISCONSIN

CITY           SKY/WX    TMP DP  RH WIND       PRES   REMARKS
SUPERIOR ARPT  MOCLDY    23  13  64 NW14G20   30.01R WCI  11
ASHLAND        CLOUDY    23  14  68 NW14      29.94R WCI  11
HAYWARD        CLOUDY    24  13  62 N14G23    29.91R WCI  12
SIREN          MOCLDY    25  16  67 N12G24    29.98R WCI  14
CUMBERLAND     CLOUDY    27  18  69 N18G28    29.91R WCI  13
RICE LAKE      CLOUDY    28  19  68 NW17G24   29.92R WCI  16
CHETEK         CLOUDY    28  23  79 NW10G21   29.89R WCI  19
LADYSMITH      CLOUDY    28  23  80 NW17G23   29.87R WCI  16
EAU CLAIRE     CLOUDY    30  24  78 N12G21    29.88R WCI  20
MENOMONIE      CLOUDY    32  26  77 NW21G32   29.89R WCI  20
NEW RICHMOND   CLOUDY    29  22  74 N23G31    29.95R WCI  16
OSCEOLA        CLOUDY    29  20  69 NW18G25   29.99R WCI  17
$$

WIZ003>005-009-010-017-018-112300-
NORTH CENTRAL WISCONSIN

CITY           SKY/WX    TMP DP  RH WIND       PRES   REMARKS
MANITOWISH WTR FLURRIES  23  21  93 NW10      29.78R WCI  12
ARBOR VITAE    CLOUDY    25  23  89 N18G26    29.76R WCI  12
WOODRUFF       CLOUDY    25  23  89 N18G26    29.76R WCI  12
RHINELANDER    CLOUDY    25  23  92 NW12G22   29.75R WCI  14
EAGLE RIVER    CLOUDY    25  23  93 NW17G25   29.73R WCI  11
LAND O LAKES   LGT SNOW  25  22  89 NW15G26   29.74R WCI  12
PHILLIPS       CLOUDY    25  22  91 NW13G22   29.80R WCI  13
TOMAHAWK       CLOUDY    25  22  91 NW13G21   29.78R WCI  13
MEDFORD        CLOUDY    26  23  89 NW12G17   29.79R WCI  15
MERRILL        CLOUDY    26  24  91 NW9       29.78R WCI  17
$$

WIZ029-030-035-036-043>047-112300-
CENTRAL WISCONSIN

CITY           SKY/WX    TMP DP  RH WIND       PRES   REMARKS
WAUSAU         CLOUDY    26  23  88 NW9       29.76R WCI  17
MOSINEE        CLOUDY    27  25  93 NW9       29.78R FOG     WCI  17
MARSHFIELD     CLOUDY    28  23  81 N16       29.78R WCI  16
STEVENS POINT  CLOUDY    26  24  90 NW9       29.79R WCI  17
WAUPACA        CLOUDY    31  26  81 NW9       29.77R WCI  23
WAUTOMA        CLOUDY    31  25  78 NW8       29.77R WCI  23
WISC RAPIDS    CLOUDY    29  23  78 N17G24    29.80R WCI  17
CAMP DOUGLAS   CLOUDY    32  27  80 NW15      29.79R WCI  22
$$

WIZ011>013-019>022-031-037>040-048>050-112300-
NORTHEAST WISCONSIN

CITY           SKY/WX    TMP DP  RH WIND       PRES   REMARKS
ANTIGO         CLOUDY    24  22  94 NW10      29.74R WCI  13
SHAWANO        CLOUDY    28  25  87 NW5       29.76R WCI  23
OCONTO         CLOUDY    26  23  89 NW5       29.76R WCI  20
STURGEON BAY   CLOUDY    26  24  92 NW12      29.74R WCI  16
GREEN BAY      CLOUDY    28  25  88 NW8       29.75S WCI  20
MANITOWOC      CLOUDY    29  24  82 NW7       29.74R WCI  22
APPLETON       CLOUDY    28  21  74 NW9       29.73R WCI  20
CLINTONVILLE   NOT AVBL
OSHKOSH        CLOUDY    30  24  78 NW10      29.74R WCI  21
$$

WIZ032>034-041-042-053>061-112300-
SOUTHWEST WISCONSIN

CITY           SKY/WX    TMP DP  RH WIND       PRES   REMARKS
LA CROSSE      CLOUDY    34  27  75 N17       29.86R WCI  23
SPARTA         CLOUDY    32  27  83 NW10G20   29.84R WCI  23
VIROQUA        CLOUDY    30  29  97 N16G23    29.79R WCI  19
BOSCOBEL       CLOUDY    34  29  82 VRB3      29.81R
PRAIRIE DU CHI CLOUDY    33  30  89 NW5       29.82R WCI  28
PLATTEVILLE    CLOUDY    32  32  99 NW6       29.77R WCI  26
$$

WIZ056-057-062-063-064-067-068-112300-
SOUTH CENTRAL WISCONSIN

CITY           SKY/WX    TMP DP  RH WIND       PRES   REMARKS
REEDSBURG      CLOUDY    31  28  85 N10G17    29.77R WCI  23
BARABOO/DELLS  CLOUDY    31  26  79 NW7       29.75R WCI  25
LONE ROCK      CLOUDY    31  28  89 W6        29.79R FOG     WCI  25
MINERAL POINT  CLOUDY    32  32 100 N6        29.76R WCI  26
MADISON        CLOUDY    31  27  85 NW7       29.75R WCI  24
MIDDLETON      CLOUDY    32  29  88 NW9       29.76R WCI  24
WATERTOWN      MOCLDY    31  28  87 NW6       29.74R WCI  25
MONROE         CLOUDY    32  27  80 NW8       29.74R WCI  25
JANESVILLE     CLOUDY    34  28  80 NW9       29.73R WCI  26
$$

WIZ051-052-058>065-066-070>072-112300-
SOUTHEAST WISCONSIN

CITY           SKY/WX    TMP DP  RH WIND       PRES   REMARKS
MILWAUKEE      CLOUDY    33  27  78 NW7       29.72R WCI  27
WAUKESHA       CLOUDY    30  25  80 W8        29.73R WCI  23
MILWAUKEE/TIMM CLOUDY    32  25  74 W8        29.73R WCI  25
RACINE         MOCLDY    32  28  85 CALM      29.72R
BURLINGTON     MOCLDY    39  39 100 NW7       29.72R WCI  34
KENOSHA        CLOUDY    32  27  81 CALM      29.70R HAZE
FOND DU LAC    CLOUDY    32  24  72 NW10      29.74R WCI  24
SHEBOYGAN      CLOUDY    30  25  81 N3        29.73R
WEST BEND      MOCLDY    32  27  80 NW7       29.72R WCI  26
JUNEAU         CLOUDY    29  24  82 NW5       29.75R WCI  24
$$

LSZ147-162-112300-
LAKE SUPERIOR

STATION/POSITION TIME  TEMP    WIND        PRES    WAVE
                       AIR SEA DIR/SP/G            HT/PER
                 (UTC) (F)     (DEG/KT/KT) (MB)    (FT/S)
DEVILS ISLAND    2200   22     340/ 29/ 34 1015.2R
SAXON HARBOR     2130   27                 1012.2R
$$

LMZ867-665-643>646-112300-
LAKE MICHIGAN

STATION/POSITION TIME  TEMP    WIND        PRES    WAVE
                       AIR SEA DIR/SP/G            HT/PER
                 (UTC) (F)     (DEG/KT/KT) (MB)    (FT/S)
NORTHPORT PIER   2140   28     290/  7/ 13 1006.4S
KEWAUNEE LAKESHO 2148   27     310/  4/  7 1006.3R
SHEBOYGAN LAKESH 2200   31     300/  6/  7 1007.5R
PORT WASHINGTON  2140   33     340/  3/  5 1007.5R
MILWAUKEE LAKESH 2150   33     300/  6/  7   N/A
KENOSHA   LAKESH 2200   33     320/  3/  3 1006.1
$$

TC  - TEMPERATURE IN CELSIUS
VSB - VISIBILITY IN STATUTE MILES
WCI - WIND CHILL INDEX
HX  - HEAT INDEX





USA.gov is the U.S. government's official web portal to all federal, state and local government web resources and services.